Gadsden, AL

2:59 AM CDT on October 17, 2019 (GMT -0500)
Gadsden Municipal

Weather History for KGAD - May, 2019

Change the Weather History Date:

Thursday, May 9, 2019

  Actual Average Record
Temperature  
Mean Temperature 70 °F -  
Max Temperature 80 °F 77 °F 92 °F (1936)
Min Temperature 62 °F 53 °F 40 °F (1947)
Cooling Degree Days 5    
Growing Degree Days 20 (Base 50)    
Moisture  
Dew Point 67 °F    
Average Humidity 90    
Maximum Humidity 100    
Minimum Humidity 74    
Precipitation  
Precipitation 0.41 in - - ()
Sea Level Pressure  
Sea Level Pressure 30.00 in    
Wind  
Wind Speed 5 mph (SSE)    
Max Wind Speed 21 mph    
Max Gust Speed 40 mph    
Visibility 7 miles    
Events Fog , Rain , Thunderstorm    
Averages and records for this station are not official NWS values.
T = Trace of Precipitation, MM = Missing Value Source: NWS Daily Summary

Daily Weather History Graph

Daily Weather History Graph

Search for Another Location

Airport or City:

Astronomy

May. 09, 2019 Rise Set
Actual Time 5:47 AM CDT 7:34 PM CDT
Civil Twilight 5:20 AM CDT 8:01 PM CDT
Nautical Twilight 4:47 AM CDT 8:34 PM CDT
Astronomical Twilight 4:13 AM CDT 9:09 PM CDT
Moon 9:46 AM CDT (5/9) No Moon Set
Length of Visible Light 14h 40m
Length of Day
13h 46m
Waxing Crescent, 25% of the Moon is Illuminated
May 9
Waxing Crescent
May 11
First Quarter
May 18
Full
May 26
Last Quarter
Jun 3
New

Hourly Weather History & Observations

Time (CDT) Temp. Dew Point Humidity Pressure Visibility Wind Dir Wind Speed Gust Speed Precip Events Conditions
12:56 AM 73.9 °F 66.0 °F 76% 29.99 in 10.0 mi South 5.8 mph - N/A   Clear
1:56 AM 73.0 °F 66.9 °F 81% 30.01 in 10.0 mi South 5.8 mph - N/A   Scattered Clouds
2:56 AM 70.0 °F 68.0 °F 93% 30.01 in 10.0 mi Calm Calm - N/A   Overcast
3:56 AM 70.0 °F 69.1 °F 97% 30.01 in 10.0 mi SSE 4.6 mph - 0.00 in Rain Light Rain
4:07 AM 69.8 °F 69.8 °F 100% 30.00 in 10.0 mi SE 6.9 mph - 0.00 in   Overcast
4:56 AM 71.1 °F 69.1 °F 93% 29.97 in 10.0 mi SSE 6.9 mph - 0.00 in   Scattered Clouds
5:56 AM 71.1 °F 69.1 °F 93% 29.96 in 10.0 mi Variable 6.9 mph - N/A   Clear
6:56 AM 71.1 °F 68.0 °F 90% 29.99 in 10.0 mi SE 6.9 mph - N/A   Mostly Cloudy
7:26 AM 71.6 °F 68.0 °F 88% 30.00 in 10.0 mi SE 5.8 mph - N/A   Scattered Clouds
7:56 AM 71.1 °F 68.0 °F 90% 30.00 in 8.0 mi SE 4.6 mph - 0.00 in   Mostly Cloudy
8:56 AM 72.0 °F 68.0 °F 87% 30.01 in 10.0 mi SSE 4.6 mph - N/A   Overcast
9:33 AM 73.4 °F 68.0 °F 83% 30.01 in 10.0 mi SSE 5.8 mph - N/A   Overcast
9:45 AM 73.4 °F 68.0 °F 83% 30.01 in 10.0 mi SSE 6.9 mph - N/A   Overcast
9:56 AM 73.9 °F 68.0 °F 82% 30.00 in 10.0 mi SSE 6.9 mph - N/A   Overcast
10:56 AM 78.1 °F 69.1 °F 74% 29.97 in 10.0 mi SE 12.7 mph 18.4 mph N/A   Mostly Cloudy
11:09 AM 78.8 °F 69.8 °F 74% 29.98 in 10.0 mi SSE 12.7 mph 19.6 mph N/A   Scattered Clouds
11:56 AM 77.0 °F 68.0 °F 74% 29.99 in 10.0 mi South 9.2 mph - N/A   Mostly Cloudy
12:56 PM 77.0 °F 69.1 °F 76% 29.97 in 10.0 mi South 6.9 mph - N/A   Mostly Cloudy
1:28 PM 68.0 °F 66.2 °F 94% 30.05 in 1.8 mi West 20.7 mph 40.3 mph 0.06 in Rain Heavy Rain
1:40 PM 64.4 °F 64.4 °F 100% 30.03 in 3.0 mi SW 4.6 mph - 0.28 in Rain Heavy Rain
1:48 PM 64.4 °F 64.4 °F 100% 30.01 in 7.0 mi SSE 6.9 mph - 0.31 in Rain , Thunderstorm Thunderstorms and Rain
1:56 PM 64.9 °F 64.9 °F 100% 30.01 in 8.0 mi SSE 3.5 mph - 0.33 in Rain , Thunderstorm Light Thunderstorms and Rain
2:00 PM 64.4 °F 64.4 °F 100% 30.00 in 9.0 mi SE 5.8 mph - 0.00 in Rain , Thunderstorm Light Thunderstorms and Rain
2:27 PM 66.2 °F - N/A% 29.98 in 10.0 mi SSE 4.6 mph - 0.01 in Rain Light Rain
2:48 PM 66.2 °F - N/A% 29.98 in 10.0 mi SE 4.6 mph - 0.03 in Rain Rain
2:56 PM 66.0 °F - N/A% 29.97 in 9.0 mi SE 6.9 mph - 0.04 in Rain Rain
3:56 PM 66.0 °F - N/A% 29.96 in 10.0 mi South 4.6 mph - 0.02 in Rain Light Rain
4:56 PM 66.9 °F 66.9 °F 100% 29.98 in 10.0 mi Variable 3.5 mph - 0.02 in   Mostly Cloudy
5:22 PM 66.2 °F 66.2 °F 100% 29.96 in 10.0 mi SE 4.6 mph - N/A   Mostly Cloudy
5:32 PM 66.2 °F 66.2 °F 100% 29.95 in 10.0 mi ESE 4.6 mph - N/A   Scattered Clouds
5:56 PM 66.9 °F 66.9 °F 100% 30.00 in 10.0 mi West 5.8 mph - N/A   Clear
6:56 PM 66.0 °F - N/A% 29.98 in 10.0 mi ESE 4.6 mph - N/A   Clear
7:56 PM 64.9 °F - N/A% 30.02 in 10.0 mi Calm Calm - N/A   Clear
8:56 PM 64.0 °F - N/A% 30.03 in 10.0 mi Calm Calm - N/A   Clear
9:11 PM 64.4 °F - N/A% 30.03 in 1.8 mi Calm Calm - N/A   Partly Cloudy
9:21 PM 64.4 °F - N/A% 30.02 in 3.0 mi SE 3.5 mph - N/A   Partly Cloudy
9:56 PM 64.0 °F - N/A% 30.04 in 10.0 mi Calm Calm - N/A   Scattered Clouds
10:31 PM 62.6 °F - N/A% 30.03 in 1.8 mi Calm Calm - N/A   Partly Cloudy
10:34 PM 62.6 °F - N/A% 30.03 in 0.8 mi Calm Calm - N/A   Partly Cloudy
10:40 PM 62.6 °F - N/A% 30.03 in 0.2 mi Calm Calm - N/A Fog Fog
10:56 PM 63.0 °F - N/A% 30.03 in 0.5 mi Calm Calm - N/A Fog Fog
11:09 PM 62.6 °F - N/A% 30.03 in 0.8 mi Calm Calm - N/A   Partly Cloudy
11:19 PM 62.6 °F - N/A% 30.02 in 1.0 mi Calm Calm - N/A   Mist
11:22 PM 64.4 °F - N/A% 30.02 in 2.0 mi Calm Calm - N/A   Scattered Clouds
11:27 PM 64.4 °F - N/A% 30.02 in 7.0 mi Calm Calm - N/A   Mostly Cloudy
11:39 PM 64.4 °F - N/A% 30.02 in 1.5 mi Calm Calm - N/A   Overcast
11:42 PM 64.4 °F - N/A% 30.02 in 0.8 mi Calm Calm - N/A   Overcast
11:56 PM 63.0 °F - N/A% 30.03 in 0.5 mi Calm Calm - N/A Fog Fog